Regional Weather Roundup
Issued by NWS

Home | Current Version | Previous Version | Graphics & Text | Print | Product List | Glossary Off
Versions: 1 2 3 4 5 6 7 8 9 10 11 12 13 14 15 16 17 18 19 20 21 22 23 24 25 26 27 28 29 30 31 32 33 34 35 36 37 38 39 40 41 42 43 44 45 46 47 48 49 50

000
ASUS43 KDTX 260910
RWRMI
MICHIGAN HOURLY REGIONAL WEATHER ROUNDUP
NATIONAL WEATHER SERVICE DETROIT/PONTIAC MI
ISSUED BY NATIONAL WEATHER SERVICE GRAND RAPIDS MI
500 AM EDT FRI MAY 26 2017

NOTE: "FAIR" INDICATES FEW OR NO CLOUDS BELOW 12,000 FEET WITH NO
SIGNIFICANT WEATHER AND/OR OBSTRUCTION TO VISIBILITY.

MIZ047>049-052>055-059>063-066>070-074>076-081>083-261000-
SOUTHEAST LOWER MICHIGAN

CITY           SKY/WX    TMP DP  RH WIND       PRES   REMARKS
ADRIAN         CLOUDY    57  55  93 W5        29.75R
ALMA           CLOUDY    56  53  90 NW9       29.76R
ANN ARBOR      CLOUDY    56  53  90 NW8       29.72R
BAD AXE        FOG       50  50 100 NW10      29.71R VSB 3/4
DETROIT CITY   CLOUDY    55  53  93 NW7       29.71R
DETROIT        CLOUDY    57  54  89 NW7       29.72R
FLINT          CLOUDY    54  52  93 NW6       29.73R
GROSSE ILE     CLOUDY    57  54  88 NW7       29.71R
HILLSDALE      CLOUDY    52  50  93 W9        29.76R FOG
HOWELL         CLOUDY    54  51  89 NW3       29.73R

CITY           SKY/WX    TMP DP  RH WIND       PRES   REMARKS
JACKSON        CLOUDY    56  53  90 NW7       29.75R
LANSING        CLOUDY    55  50  83 NW5       29.76R
MASON          CLOUDY    55  52  90 NW5       29.75R
MONROE         CLOUDY    58  55  91 NW6       29.72R
MT. CLEMENS    CLOUDY    55  55 100 NW6       29.69R
PONTIAC        CLOUDY    53  51  93 NW6       29.71R
PORT HOPE        N/A     48  47  96 NW8       29.68R
PORT HURON     CLOUDY    52  50  93 W3        29.69R
TRI CITIES     CLOUDY    56  53  90 N9        29.74R
YPSILANTI      CLOUDY    58  55  90 N7        29.73R
$$
MIZ043>046-050>051-056>058-064>065-071>073-077>080-261000-
SOUTHWEST LOWER MICHIGAN

CITY           SKY/WX    TMP DP  RH WIND       PRES   REMARKS
BATTLE CREEK   CLOUDY    52  52 100 NW8       29.79R FOG
BENTON HARBOR  MOCLDY    49  46  90 W7        29.81R
BIG RAPIDS     PTCLDY    50  48  92 NW6       29.77R
COLDWATER      CLOUDY    52  52 100 W8        29.78R FOG
HOLLAND        CLEAR     48  46  93 CALM      29.80R
GRAND RAPIDS   PTCLDY    53  53 100 W7        29.78R
KALAMAZOO      FOG       51  49  92 W5        29.79R VSB 1
MARSHALL       CLOUDY    52  52  98 W8        29.77R
MOUNT PLEASANT PTCLDY    55  50  86 CALM      29.75R
MUSKEGON       CLEAR     50  49  96 NW6       29.80R
STURGIS        FOG       51  51 100 W7        29.79R VSB 3/4
$$
MIZ016>042-261000-
NORTHERN LOWER MICHIGAN

CITY           SKY/WX    TMP DP  RH WIND       PRES   REMARKS
ALPENA         CLOUDY    53  53 100 N7        29.73R FOG
BEAVER ISLAND  MOCLDY    51  51  99 NW3       29.79R
BELLAIRE       CLOUDY    54  51  90 CALM      29.77S
CADILLAC       MOCLDY    51  50  97 N7        29.77R
CHARLEVOIX     CLOUDY    50  50 100 N5        29.81R FOG
GAYLORD        CLOUDY    54  50  86 VRB3      29.76S FOG
HOUGHTON LAKE  CLOUDY    54  51  90 N7        29.75R
MANISTEE       FOG       45  45 100 NW6       29.80R VSB 3/4
OSCODA         CLOUDY    55  54  97 NW8       29.71R FOG
PELLSTON       CLOUDY    54  51  90 W5        29.77R
TRAVERSE CITY  CLOUDY    52  51  97 CALM      29.77R FOG
LUDINGTON      FOG       47  47 100 CALM      29.80R VSB 1/2
$$
MIZ007>008-015-261000-
EASTERN UPPER MICHIGAN

CITY           SKY/WX    TMP DP  RH WIND       PRES   REMARKS
KINROSS        PTCLDY    50  49  96 N8        29.78R
MACKINAC ISLAN CLOUDY    52  52 100 N5        29.77R
NEWBERRY       PTCLDY    50  49  97 NW6       29.78F
S. S. MARIE    CLOUDY    50  48  93 W3        29.76R
$$
MIZ004>006-011>014-085-261000-
CENTRAL UPPER MICHIGAN

CITY           SKY/WX    TMP DP  RH WIND       PRES   REMARKS
MANISTIQUE     FOG       49  46  89 CALM      29.79R VSB 1/2
ESCANABA       CLEAR     46  45  96 W5        29.82R
MENOMINEE      CLEAR     46  46 100 CALM      29.83R FOG
SAWYER-GWINN   CLEAR     43  42  95 CALM      29.82S
$$
MIZ001>003-009>011-084-261000-
WESTERN UPPER MICHIGAN

CITY           SKY/WX    TMP DP  RH WIND       PRES   REMARKS
IRON MOUNTAIN  FOG       44  41  89 CALM      29.81R VSB 3/4
HOUGHTON       CLEAR     46  43  89 E3        29.79R
COPPER HARBOR    N/A     52  46  80 SW8       29.79R
IRONWOOD       CLOUDY    59  50  72 S13       29.77R
$$

ABBREVIATIONS USED IN REMARKS
   TC - TEMPERATURE IN CELSIUS
  WCI - WIND CHILL INDEX
   HX - HEAT INDEX
  VSB - VISIBILITY




USA.gov is the U.S. government's official web portal to all federal, state and local government web resources and services.